{"data":{"norad_id":55634,"epoch":"2026-05-24T23:13:18.124896Z","epoch_age_seconds":68013,"freshness":"FRESH","line1":"1 55634U 23021G   26144.96757089  .00001510  00000+0  13430-3 0  9999","line2":"2 55634  69.9997  12.1441 0003606 265.4024  94.6723 14.98332547179717","mean_motion":14.98332547,"eccentricity":0.0003606,"inclination_deg":69.9997,"raan_deg":12.1441,"arg_perigee_deg":265.4024,"mean_anomaly_deg":94.6723,"bstar":0.0001343,"rev_number":17971,"period_min":96.106835754399,"perigee_km":569.54177785192,"apogee_km":574.55425128443,"semimajor_km":6950.1850145682,"source":"CELESTRAK","updated_at":"2026-05-25T13:38:17.847918Z"}}